Offutt Air Force Base, NE

6:40 PM CDT on September 26, 2016 (GMT -0500)
Offutt Air Force Base

Weather History for KOFF - January, 2012

Change the Weather History Date:

Friday, January 13, 2012

  Actual Average Record
Temperature  
Mean Temperature 17 °F -  
Max Temperature 28 °F 30 °F 51 °F (2002)
Min Temperature 6 °F 14 °F -11 °F (2011)
Degree Days  
Heating Degree Days 48    
Moisture  
Dew Point 5 °F    
Average Humidity 65    
Maximum Humidity 99    
Minimum Humidity 25    
Precipitation  
Precipitation 0.00 in - - ()
Sea Level Pressure  
Sea Level Pressure 30.08 in    
Wind  
Wind Speed 8 mph (WNW)    
Max Wind Speed 13 mph    
Max Gust Speed -    
Visibility 10 miles    
Events      
Averages and records for this station are not official NWS values.
T = Trace of Precipitation, MM = Missing Value Source: NWS Daily Summary

Daily Weather History Graph

Daily Weather History Graph

Search for Another Location

Airport or City:

Trip Planner

Search our weather history database for the weather conditions in past years. The results will help you decide how hot, cold, wet, or windy it might be!

Date:

Astronomy

Jan. 13, 2012 Rise Set
Actual Time 7:47 AM CST 5:17 PM CST
Civil Twilight 7:17 AM CST 5:47 PM CST
Nautical Twilight 6:43 AM CST 6:21 PM CST
Astronomical Twilight 6:09 AM CST 6:54 PM CST
Moon 10:34 PM CST (1/13) 9:59 AM CST (1/13)
Length of Visible Light 10h 30m
Length of Day
9h 29m
Waning Gibbous, 78% of the Moon is Illuminated
Jan 13
Waning Gibbous
Jan 16
Last Quarter
Jan 23
New
Jan 30
First Quarter
Feb 7
Full

Hourly Weather History & Observations

Time (CST) Temp. Windchill Dew Point Humidity Pressure Visibility Wind Dir Wind Speed Gust Speed Precip Events Conditions
12:55 AM 10.4 °F -4.8 °F 8.2 °F 91% 30.09 in 10.0 mi NW 12.7 mph - N/A   Clear
1:55 AM 9.3 °F -3.8 °F 8.1 °F 95% 30.10 in 10.0 mi NW 9.2 mph - N/A   Clear
2:55 AM 8.8 °F -6.1 °F 7.9 °F 96% 30.10 in 10.0 mi NW 11.5 mph - N/A   Clear
3:55 AM 8.4 °F -4.9 °F 7.0 °F 94% 30.09 in 10.0 mi NW 9.2 mph - N/A   Clear
4:55 AM 8.4 °F -2.8 °F 6.3 °F 91% 30.10 in 10.0 mi NW 6.9 mph - N/A   Clear
5:55 AM 7.2 °F -4.3 °F 6.3 °F 96% 30.12 in 10.0 mi NW 6.9 mph - N/A   Clear
6:55 AM 6.3 °F -6.5 °F 6.1 °F 99% 30.13 in 10.0 mi WNW 8.1 mph - N/A   Clear
7:55 AM 6.4 °F -5.2 °F 6.3 °F 99% 30.14 in 10.0 mi WNW 6.9 mph - N/A   Clear
8:55 AM 9.7 °F -5.0 °F 7.3 °F 90% 30.15 in 10.0 mi WNW 11.5 mph - N/A   Clear
9:55 AM 13.1 °F 0.9 °F 6.4 °F 75% 30.16 in 10.0 mi NW 9.2 mph - N/A   Clear
10:55 AM 16.2 °F 7.6 °F 6.3 °F 65% 30.17 in 10.0 mi WNW 5.8 mph - N/A   Clear
11:55 AM 19.8 °F 11.9 °F 3.7 °F 50% 30.13 in 10.0 mi West 5.8 mph - N/A   Clear
12:55 PM 22.8 °F 16.7 °F -2.2 °F 34% 30.11 in 10.0 mi NW 4.6 mph - N/A   Clear
1:55 PM 26.1 °F 21.9 °F -5.6 °F 25% 30.09 in 10.0 mi Variable 3.5 mph - N/A   Clear
2:55 PM 28.0 °F 20.8 °F -1.7 °F 28% 30.08 in 10.0 mi West 6.9 mph - N/A   Clear
3:55 PM 27.3 °F 20.9 °F 0.7 °F 32% 30.07 in 10.0 mi West 5.8 mph - N/A   Clear
4:55 PM 26.1 °F - 2.3 °F 36% 30.07 in 10.0 mi Calm Calm - N/A   Clear
5:55 PM 20.1 °F 13.6 °F 4.8 °F 52% 30.07 in 10.0 mi SE 4.6 mph - N/A   Clear
6:55 PM 20.1 °F - 7.5 °F 58% 30.06 in 10.0 mi Calm Calm - N/A   Mostly Cloudy
7:55 PM 24.1 °F 19.7 °F 7.2 °F 49% 30.04 in 10.0 mi SSE 3.5 mph - N/A   Mostly Cloudy
8:55 PM 24.6 °F 18.8 °F 7.7 °F 49% 30.02 in 10.0 mi SSE 4.6 mph - N/A   Overcast
9:55 PM 25.5 °F 18.7 °F 7.9 °F 47% 29.99 in 10.0 mi SE 5.8 mph - N/A   Scattered Clouds
10:55 PM 26.4 °F 18.0 °F 9.9 °F 50% 29.96 in 10.0 mi SE 8.1 mph - N/A   Clear
11:55 PM 27.9 °F 20.6 °F 11.5 °F 50% 29.91 in 10.0 mi ESE 6.9 mph - N/A   Scattered Clouds